Tracking 29892 objects as of 21-Nov-2024
HD Live streaming from Space Station
objects crossing your sky now

STARLINK-2275

Track STARLINK-2275 now!
10-day predictions
STARLINK-2275 is classified as:


NORAD ID: 48600
Int'l Code: 2021-041AZ
Perigee: 553.7 km
Apogee: 554.9 km
Inclination: 53.1 °
Period: 95.6 minutes
Semi major axis: 6925 km
RCS: Unknown
Launch date: May 15, 2021
Source: United States (US)
Launch site: AIR FORCE EASTERN TEST RANGE (AFETR)
Your satellite tracking list
Your tracking list is empty




NASA's NSSDC Master Catalog

Two Line Element Set (TLE):
1 48600U 21041AZ  24325.81432450  .00004846  00000-0  34385-3 0  9997
2 48600  53.0534  98.9256 0000859  90.6433 269.4655 15.06411964195049
Source of the keplerian elements: AFSPC